TimeEST,TemperatureF,Dew PointF,Humidity,Sea Level PressureIn,VisibilityMPH,Wind Direction,Wind SpeedMPH,Gust SpeedMPH,PrecipitationIn,Events,Conditions,WindDirDegrees,DateUTC
12:53 AM,36.0,25.0,64,30.19,10.0,ESE,5.8,-,N/A,,Overcast,110,2012-11-06 05:53:00
1:53 AM,36.0,25.0,64,30.19,10.0,ESE,3.5,-,N/A,,Overcast,110,2012-11-06 06:53:00
2:53 AM,33.1,24.1,70,30.17,10.0,SE,3.5,-,N/A,,Scattered Clouds,130,2012-11-06 07:53:00
3:53 AM,33.1,24.1,70,30.15,10.0,Calm,Calm,-,N/A,,Mostly Cloudy,0,2012-11-06 08:53:00
4:53 AM,30.9,25.0,79,30.15,10.0,Calm,Calm,-,N/A,,Overcast,0,2012-11-06 09:53:00
5:53 AM,30.9,25.0,79,30.14,10.0,Calm,Calm,-,N/A,,Mostly Cloudy,0,2012-11-06 10:53:00
6:53 AM,28.9,24.1,82,30.13,10.0,Calm,Calm,-,N/A,,Partly Cloudy,0,2012-11-06 11:53:00
7:53 AM,30.9,26.1,82,30.14,10.0,Calm,Calm,-,N/A,,Overcast,0,2012-11-06 12:53:00
8:53 AM,36.0,28.0,73,30.14,10.0,ENE,3.5,-,N/A,,Overcast,70,2012-11-06 13:53:00
9:53 AM,37.9,26.1,62,30.14,10.0,East,5.8,-,N/A,,Overcast,80,2012-11-06 14:53:00
10:53 AM,39.0,28.0,65,30.14,10.0,East,6.9,-,N/A,,Overcast,100,2012-11-06 15:53:00
11:36 AM,39.2,28.4,65,30.10,10.0,ESE,8.1,-,N/A,,Overcast,110,2012-11-06 16:36:00
11:53 AM,39.0,28.9,67,30.11,10.0,ESE,8.1,-,N/A,,Overcast,120,2012-11-06 16:53:00
12:53 PM,39.9,30.0,68,30.09,10.0,ESE,8.1,-,N/A,,Overcast,120,2012-11-06 17:53:00
1:53 PM,39.9,30.0,68,30.07,10.0,SSE,8.1,-,N/A,,Overcast,150,2012-11-06 18:53:00
2:53 PM,39.9,30.9,70,30.05,10.0,ESE,5.8,-,N/A,,Overcast,120,2012-11-06 19:53:00
3:53 PM,39.9,30.9,70,30.05,10.0,East,8.1,-,N/A,,Overcast,90,2012-11-06 20:53:00
4:53 PM,39.0,32.0,76,30.04,10.0,ESE,8.1,-,N/A,,Overcast,120,2012-11-06 21:53:00
5:18 PM,39.2,32.0,75,30.02,10.0,ESE,6.9,-,N/A,,Overcast,120,2012-11-06 22:18:00
5:32 PM,39.2,32.0,75,30.02,10.0,East,8.1,-,N/A,,Overcast,100,2012-11-06 22:32:00
5:53 PM,39.0,32.0,76,30.04,10.0,East,5.8,-,N/A,,Overcast,100,2012-11-06 22:53:00
6:53 PM,39.0,30.9,73,30.05,10.0,East,4.6,-,N/A,,Overcast,100,2012-11-06 23:53:00
7:53 PM,39.0,30.9,73,30.04,10.0,ESE,9.2,-,N/A,,Mostly Cloudy,110,2012-11-07 00:53:00
8:53 PM,39.0,33.1,79,30.04,10.0,East,9.2,-,N/A,,Overcast,80,2012-11-07 01:53:00
9:53 PM,37.0,30.0,76,30.04,10.0,East,12.7,-,N/A,,Mostly Cloudy,90,2012-11-07 02:53:00
10:53 PM,35.1,26.1,70,30.03,10.0,ENE,8.1,-,N/A,,Scattered Clouds,70,2012-11-07 03:53:00
11:53 PM,35.1,27.0,72,30.02,10.0,ENE,8.1,-,N/A,,Mostly Cloudy,70,2012-11-07 04:53:00